TimeCST,TemperatureF,Dew PointF,Humidity,Sea Level PressureIn,VisibilityMPH,Wind Direction,Wind SpeedMPH,Gust SpeedMPH,PrecipitationIn,Events,Conditions,WindDirDegrees,DateUTC
12:53 AM,37.9,34.0,86,30.01,10.0,NNW,11.5,-,N/A,,Overcast,340,2012-11-07 06:53:00
1:53 AM,37.0,34.0,89,30.02,10.0,NNW,10.4,-,N/A,,Overcast,340,2012-11-07 07:53:00
2:53 AM,37.0,34.0,89,30.04,10.0,NNW,9.2,-,N/A,,Overcast,340,2012-11-07 08:53:00
3:53 AM,37.0,34.0,89,30.05,10.0,NNW,9.2,-,N/A,,Overcast,330,2012-11-07 09:53:00
4:53 AM,37.0,34.0,89,30.07,10.0,NNW,9.2,-,N/A,,Overcast,330,2012-11-07 10:53:00
5:53 AM,37.0,34.0,89,30.09,10.0,North,6.9,-,N/A,,Overcast,360,2012-11-07 11:53:00
6:53 AM,36.0,33.1,89,30.11,10.0,North,5.8,-,N/A,,Overcast,360,2012-11-07 12:53:00
7:53 AM,37.9,34.0,86,30.13,10.0,NW,5.8,-,N/A,,Overcast,320,2012-11-07 13:53:00
8:02 AM,37.4,33.8,87,30.11,10.0,NNW,6.9,-,N/A,,Mostly Cloudy,330,2012-11-07 14:02:00
8:53 AM,39.9,34.0,79,30.14,10.0,North,6.9,-,N/A,,Clear,350,2012-11-07 14:53:00
9:53 AM,41.0,34.0,76,30.15,10.0,NNW,8.1,-,N/A,,Mostly Cloudy,340,2012-11-07 15:53:00
10:53 AM,43.0,30.0,60,30.15,-9999.0,North,8.1,-,N/A,,Unknown,10,2012-11-07 16:53:00
11:53 AM,43.0,28.9,58,30.14,-9999.0,North,-9999.0,-,N/A,,Overcast,0,2012-11-07 17:53:00
12:53 PM,42.1,28.9,60,30.13,10.0,NNW,5.8,-,0.01,,Overcast,340,2012-11-07 18:53:00
1:53 PM,42.1,28.9,60,30.12,10.0,Calm,Calm,-,N/A,,Overcast,0,2012-11-07 19:53:00
2:53 PM,43.0,28.9,58,30.12,10.0,Calm,Calm,-,N/A,,Overcast,0,2012-11-07 20:53:00
3:53 PM,42.1,30.0,62,30.12,10.0,Calm,Calm,-,N/A,,Overcast,0,2012-11-07 21:53:00
4:53 PM,41.0,33.1,73,30.12,10.0,SE,3.5,-,N/A,,Overcast,130,2012-11-07 22:53:00
5:31 PM,41.0,30.2,65,30.10,10.0,Calm,Calm,-,N/A,,Overcast,0,2012-11-07 23:31:00
5:53 PM,41.0,32.0,70,30.12,10.0,SE,3.5,-,N/A,,Overcast,140,2012-11-07 23:53:00
6:53 PM,39.9,30.9,70,30.12,10.0,SE,6.9,-,N/A,,Overcast,130,2012-11-08 00:53:00
7:53 PM,36.0,30.0,79,30.11,10.0,SSE,5.8,-,N/A,,Mostly Cloudy,160,2012-11-08 01:53:00
8:08 PM,35.6,28.4,75,30.09,10.0,SSE,4.6,-,N/A,,Partly Cloudy,150,2012-11-08 02:08:00
8:53 PM,34.0,28.9,82,30.12,10.0,SSE,3.5,-,N/A,,Clear,160,2012-11-08 02:53:00
9:53 PM,34.0,28.0,79,30.12,10.0,SSE,8.1,-,N/A,,Clear,150,2012-11-08 03:53:00
10:53 PM,32.0,28.0,85,30.12,10.0,SSE,5.8,-,N/A,,Clear,150,2012-11-08 04:53:00
11:53 PM,30.0,27.0,88,30.13,10.0,South,6.9,-,N/A,,Clear,170,2012-11-08 05:53:00